Location: Bo?a Wola
(50.4192°N, 19.7966°E)
Time: 02:23:28
(UTC+00:00)

GEOS 3 Rocket - Pass Details

Date: 25 September 2024
Orbit: 790 x 825 km, 115.0° (Epoch: 14 October)

Event Time Altitude Azimuth Distance (km) Brightness Sun altitude
Exits shadow 19:18:27 80° 133° (SE) 824 3.4 -26.1°
Maximum altitude 19:18:45 89° 46° (NE) 813 3.5 -26.1°
Drops below altitude 10° 19:23:57 10° 318° (NW) 2,384 7.0 -26.8°
Sets 19:26:14 0° 318° (NW) 3,313 8.0 -27.1°
